Regional Weather Roundup
Issued by NWS

Current Version | Previous Version | Text Only | Print | Product List | Glossary On
Versions: 1 2 3 4 5 6 7 8 9 10 11 12 13 14 15 16 17 18 19 20 21 22 23 24 25 26 27 28 29 30 31 32 33 34 35 36 37 38 39 40 41 42 43 44 45 46 47 48 49 50
000
ASUS43 KDTX 260910
RWRMI
MICHIGAN HOURLY REGIONAL WEATHER ROUNDUP
NATIONAL WEATHER SERVICE DETROIT/PONTIAC MI
400 AM EST WED JAN 26 2022

NOTE: "FAIR" INDICATES FEW OR NO CLOUDS BELOW 12,000 FEET WITH NO
SIGNIFICANT WEATHER AND/OR OBSTRUCTION TO VISIBILITY.

MIZ047>049-052>055-059>063-066>070-074>076-081>083-261000-
SOUTHEAST LOWER MICHIGAN

CITY           SKY/WX    TMP DP  RH WIND       PRES   REMARKS
ADRIAN         CLOUDY     9   5  84 NW5       30.33R WCI   1
ALMA           CLEAR      4   2  91 W6        30.32R WCI  -7
ANN ARBOR      MOCLDY     9  -1  64 NW5       30.31R WCI   1
BAD AXE        CLEAR      6   2  85 W6        30.27S WCI  -5
CARO           CLEAR      3  -3  75 W5        30.30R WCI  -6
DETROIT CITY   CLEAR     11   0  61 W7        30.31R WCI   0
DETROIT        CLOUDY    10   0  63 NW6       30.32R WCI   0
FLINT          CLEAR      4  -1  80 W6        30.31R WCI  -7
GROSSE ILE     CLOUDY    13   3  62 NW6       30.31S WCI   4
HILLSDALE      LGT SNOW   9   5  84 W5        30.29R WCI   1
HOWELL         CLEAR      6   0  78 W3        30.30R

CITY           SKY/WX    TMP DP  RH WIND       PRES   REMARKS
JACKSON        CLOUDY     8   2  76 W5        30.31R WCI   0
LAMBERTVILLE   PTCLDY     6   0  76 W5        30.34R WCI  -3
LANSING        PTCLDY     7   2  80 W6        30.33R WCI  -3
LAPEER         PTCLDY     8   0  70 W5        30.28S WCI  -1
MASON          PTCLDY     6   2  84 W3        30.31R
MONROE         CLOUDY    12   8  82 W5        30.32S WCI   4
MT. CLEMENS    CLEAR      9   1  68 W7        30.29R WCI  -2
PONTIAC        CLEAR      4  -3  73 W6        30.27R WCI  -7
PORT HOPE        N/A     12   5  73 W10       30.25R WCI  -1
PORT HURON     CLOUDY    12   5  73 NW8       30.29R WCI   1
TRI CITIES     CLEAR      2  -2  83 W7        30.32R WCI -11
MIDLAND        CLEAR      1  -4  80 CALM      30.32R
TROY           CLEAR     10   0  65 W6        30.32S WCI   0
SAGINAW HB     CLEAR      6  -1  73 W9        30.32R WCI  -7
$$
MIZ043>046-050>051-056>058-064>065-071>073-077>080-261000-
SOUTHWEST LOWER MICHIGAN

CITY           SKY/WX    TMP DP  RH WIND       PRES   REMARKS
BATTLE CREEK   CLOUDY    10   4  76 NW5       30.32R WCI   2
BENTON HARBOR  LGT SNOW  15   5  64 NW10      30.36S WCI   2
BIG RAPIDS     MOCLDY    -7 -10  85 CALM      30.30R
COLDWATER      LGT SNOW   8   5  85 SW7       30.33R WCI  -3
FREMONT        FAIR      -6 -11  79 CALM      30.33R
HOLLAND        LGT SNOW  11   8  88 CALM      30.35R FOG
GRAND RAPIDS   PTCLDY     3   1  91 CALM      30.33R
IONIA          FAIR       4   3  94 W6        30.32S WCI  -7
KALAMAZOO      CLOUDY    12   5  73 NW5       30.33R WCI   4
LUDINGTON      CLOUDY    13   5  69 N6        30.34R WCI   4
MARSHALL       CLOUDY    10   4  78 CALM      30.31S
MOUNT PLEASANT CLEAR      2  -1  86 CALM      30.31R
MUSKEGON       LGT SNOW  10   7  87 CALM      30.35R VSB 1
SOUTH HAVEN    FLURRIES  15   6  67 NW8       30.35R WCI   5
$$
MIZ016>042-261000-
NORTHERN LOWER MICHIGAN

CITY           SKY/WX    TMP DP  RH WIND       PRES   REMARKS
ALPENA         CLEAR      2  -2  83 W6        30.28S WCI  -9
BEAVER ISLAND  CLEAR      7   2  82 NW6       30.30S WCI  -3
BELLAIRE       LGT SNOW  10   6  84 CALM      30.31S VSB 1
CADILLAC       LGT SNOW   0  -5  78 CALM      30.24S
CHARLEVOIX     FLURRIES  13   3  64 W8        30.29S WCI   2
FRANKFORT      CLOUDY    11   2  66 NW6       30.33S WCI   2
GAYLORD        CLOUDY    -7 -14  71 CALM      30.23R
GRAYLING       CLOUDY    -4  -8  84 CALM      30.26R
HARBOR SPRINGS CLEAR     -6  -9  84 CALM      30.28S
HOUGHTON LAKE  PTCLDY    -8 -12  83 CALM      30.27R
MANISTEE       FLURRIES  11   8  88 CALM      30.33R
OSCODA         CLEAR     -1  -5  83 W6        30.28S WCI -13
PELLSTON       CLEAR    -12 -18  74 CALM      30.30R
ROGERS CITY    CLEAR      4  -1  82 W9        30.29S WCI -11
TRAVERSE CITY  FLURRIES   5   1  83 SW5       30.30S WCI  -4
$$
MIZ007>008-015-261000-
EASTERN UPPER MICHIGAN

CITY           SKY/WX    TMP DP  RH WIND       PRES   REMARKS
KINROSS        PTCLDY    -8 -11  86 SE3       30.27S
MACKINAC ISLAN CLEAR      1  -3  86 NW6       30.28R WCI -11
NEWBERRY       MOCLDY    -1  -3  90 W9        30.25S WCI -16
S. S. MARIE    CLOUDY     2  -7  66 E3        30.26S
MUNISING         N/A     -2  -8  76 S5        30.30S WCI -12
$$
MIZ004>006-011>014-085-261000-
CENTRAL UPPER MICHIGAN

CITY           SKY/WX    TMP DP  RH WIND       PRES   REMARKS
MANISTIQUE     CLEAR     -5 -12  71 W10       30.30R WCI -23
ESCANABA       CLEAR     -8 -14  74 W9        30.36R WCI -25
MENOMINEE      CLEAR     -9 -15  75 VRB3      30.39S
SAWYER-GWINN   PTCLDY   -13 -18  79 W5        30.26F WCI -25
$$
MIZ001>003-009>011-084-261000-
WESTERN UPPER MICHIGAN

CITY           SKY/WX    TMP DP  RH WIND       PRES   REMARKS
IRON MOUNTAIN  CLEAR    -15 -21  74 CALM      30.29R
HOUGHTON       CLOUDY     1  -4  79 SW7       30.22F WCI -12
COPPER HARBOR    N/A      4  -1  80 W7        30.27S WCI  -8
IRONWOOD       PTCLDY   -13 -19  75 S5        30.28F WCI -25
$$

ABBREVIATIONS USED IN REMARKS
   TC - TEMPERATURE IN CELSIUS
  WCI - WIND CHILL INDEX
   HX - HEAT INDEX
  VSB - VISIBILITY




USA.gov is the U.S. government's official web portal to all federal, state and local government web resources and services.